Location: Cucq
(50.4773°N, 1.6202°E)
Time: 06:31:53
(UTC+00:00)

USA 267 - Pass Details

Date: 07 August 2020
Orbit: 1101 x 1106 km, 123.0° (Epoch: 22 September)

Event Time Altitude Azimuth Distance (km) Brightness Sun altitude
Rises 00:30:58 0° 89° (E) 3,920 6.3 -22.8°
Reaches altitude 10° 00:33:30 10° 85° (E) 2,964 5.7 -22.8°
Maximum altitude 00:39:49 54° 11° (N) 1,317 4.0 -22.6°
Drops below altitude 10° 00:46:10 10° 296° (WNW) 2,970 5.7 -22.4°
Sets 00:48:42 0° 292° (WNW) 3,930 6.3 -22.3°
